contact:dominique.lefevre@mio.osupytheas.fr, maurice.libes@osupytheas.fr, didier.mallarino@osupytheas.fr
Project:EMSO http://www.emso-fr.org/EMSO-France
Depth: 2436.0 m
Title:EMSO Ligure Ouest : Data MII capteur MICROCAT
DateTime_Computer,Latitude,Longitude,Temperature,Conductivity,Pressure,DateTime_Instrument
DateTime_Computer,Latitude,Longitude,degC,S m-1,dbar,DateTime_Instrument
2019-10-27T00:02:35Z,42.805,6.029,13.2958,4.59957,2469.83,2019-10-27T02:03:02Z
2019-10-27T00:05:39Z,42.805,6.029,13.2961,4.59958,2469.853,2019-10-27T02:06:05Z
2019-10-27T00:08:42Z,42.805,6.029,13.2957,4.59956,2469.853,2019-10-27T02:09:08Z
2019-10-27T00:11:45Z,42.805,6.029,13.2961,4.59957,2469.783,2019-10-27T02:12:11Z
2019-10-27T00:14:48Z,42.805,6.029,13.2960,4.59957,2469.853,2019-10-27T02:15:14Z
2019-10-27T00:17:51Z,42.805,6.029,13.2958,4.59957,2469.876,2019-10-27T02:18:18Z
2019-10-27T00:20:55Z,42.805,6.029,13.2959,4.59956,2469.844,2019-10-27T02:21:21Z
2019-10-27T00:23:58Z,42.805,6.029,13.2961,4.59956,2469.853,2019-10-27T02:24:24Z
2019-10-27T00:27:01Z,42.805,6.029,13.2963,4.59957,2469.853,2019-10-27T02:27:27Z
2019-10-27T00:30:04Z,42.805,6.029,13.2961,4.59957,2469.806,2019-10-27T02:30:31Z
2019-10-27T00:33:08Z,42.805,6.029,13.2962,4.59956,2469.867,2019-10-27T02:33:34Z
2019-10-27T00:36:11Z,42.805,6.029,13.2958,4.59958,2469.83,2019-10-27T02:36:37Z
2019-10-27T00:39:14Z,42.805,6.029,13.2958,4.59956,2469.853,2019-10-27T02:39:40Z
2019-10-27T00:42:17Z,42.805,6.029,13.2961,4.59957,2469.89,2019-10-27T02:42:43Z
2019-10-27T00:45:20Z,42.805,6.029,13.2963,4.59957,2469.806,2019-10-27T02:45:47Z
2019-10-27T00:48:24Z,42.805,6.029,13.2963,4.59956,2469.844,2019-10-27T02:48:50Z
2019-10-27T00:51:27Z,42.805,6.029,13.2961,4.59956,2469.9,2019-10-27T02:51:53Z
2019-10-27T00:54:30Z,42.805,6.029,13.2958,4.59956,2469.844,2019-10-27T02:54:57Z
2019-10-27T00:57:33Z,42.805,6.029,13.2960,4.59956,2469.83,2019-10-27T02:58:00Z
2019-10-27T01:00:37Z,42.805,6.029,13.2958,4.59957,2469.844,2019-10-27T03:01:03Z
2019-10-27T01:03:40Z,42.805,6.029,13.2957,4.59958,2469.83,2019-10-27T03:04:06Z
2019-10-27T01:06:43Z,42.805,6.029,13.2958,4.59956,2469.83,2019-10-27T03:07:09Z
2019-10-27T01:09:46Z,42.805,6.029,13.2961,4.59956,2469.806,2019-10-27T03:10:13Z
2019-10-27T01:12:50Z,42.805,6.029,13.2960,4.59957,2469.83,2019-10-27T03:13:16Z
2019-10-27T01:15:53Z,42.805,6.029,13.2961,4.59957,2469.83,2019-10-27T03:16:19Z
2019-10-27T01:18:56Z,42.805,6.029,13.2961,4.59957,2469.806,2019-10-27T03:19:23Z
2019-10-27T01:22:00Z,42.805,6.029,13.2959,4.59956,2469.853,2019-10-27T03:22:26Z
2019-10-27T01:25:03Z,42.805,6.029,13.2961,4.59959,2469.806,2019-10-27T03:25:29Z
2019-10-27T01:28:06Z,42.805,6.029,13.2963,4.59956,2469.821,2019-10-27T03:28:32Z
2019-10-27T01:31:09Z,42.805,6.029,13.2964,4.59956,2469.844,2019-10-27T03:31:35Z
2019-10-27T01:34:12Z,42.805,6.029,13.2959,4.59956,2469.806,2019-10-27T03:34:39Z
2019-10-27T01:37:16Z,42.805,6.029,13.2964,4.59956,2469.844,2019-10-27T03:37:42Z
2019-10-27T01:40:19Z,42.805,6.029,13.2961,4.59956,2469.867,2019-10-27T03:40:45Z
2019-10-27T01:43:22Z,42.805,6.029,13.2962,4.59957,2469.853,2019-10-27T03:43:48Z
2019-10-27T01:46:25Z,42.805,6.029,13.2964,4.59956,2469.83,2019-10-27T03:46:52Z
2019-10-27T01:49:28Z,42.805,6.029,13.2960,4.59957,2469.853,2019-10-27T03:49:55Z
2019-10-27T01:52:32Z,42.805,6.029,13.2958,4.59961,2469.853,2019-10-27T03:52:58Z
2019-10-27T01:55:35Z,42.805,6.029,13.2958,4.59957,2469.89,2019-10-27T03:56:01Z
2019-10-27T01:58:38Z,42.805,6.029,13.2961,4.59957,2469.89,2019-10-27T03:59:04Z
2019-10-27T02:01:41Z,42.805,6.029,13.2959,4.59958,2469.853,2019-10-27T04:02:08Z
2019-10-27T02:04:45Z,42.805,6.029,13.2964,4.59957,2469.844,2019-10-27T04:05:11Z
2019-10-27T02:07:48Z,42.805,6.029,13.2957,4.59957,2469.867,2019-10-27T04:08:14Z
2019-10-27T02:10:51Z,42.805,6.029,13.2960,4.59959,2469.867,2019-10-27T04:11:17Z
2019-10-27T02:13:54Z,42.805,6.029,13.2961,4.59957,2469.867,2019-10-27T04:14:20Z
2019-10-27T02:16:57Z,42.805,6.029,13.2962,4.59956,2469.89,2019-10-27T04:17:24Z
2019-10-27T02:20:01Z,42.805,6.029,13.2959,4.59956,2469.876,2019-10-27T04:20:27Z
2019-10-27T02:23:04Z,42.805,6.029,13.2960,4.59956,2469.844,2019-10-27T04:23:30Z
2019-10-27T02:26:07Z,42.805,6.029,13.2958,4.59958,2469.853,2019-10-27T04:26:34Z
2019-10-27T02:29:10Z,42.805,6.029,13.2960,4.59958,2469.876,2019-10-27T04:29:37Z
2019-10-27T02:32:14Z,42.805,6.029,13.2959,4.59958,2469.9,2019-10-27T04:32:40Z
2019-10-27T02:35:17Z,42.805,6.029,13.2963,4.59956,2469.867,2019-10-27T04:35:43Z
2019-10-27T02:38:20Z,42.805,6.029,13.2958,4.59957,2469.853,2019-10-27T04:38:46Z
2019-10-27T02:41:23Z,42.805,6.029,13.2960,4.59958,2469.876,2019-10-27T04:41:50Z
2019-10-27T02:44:26Z,42.805,6.029,13.2961,4.59960,2469.914,2019-10-27T04:44:53Z
2019-10-27T02:47:30Z,42.805,6.029,13.2963,4.59957,2469.9,2019-10-27T04:47:56Z
2019-10-27T02:50:33Z,42.805,6.029,13.2959,4.59958,2469.876,2019-10-27T04:50:59Z
2019-10-27T02:53:36Z,42.805,6.029,13.2959,4.59957,2469.89,2019-10-27T04:54:02Z
2019-10-27T02:56:39Z,42.805,6.029,13.2959,4.59958,2469.876,2019-10-27T04:57:06Z
2019-10-27T02:59:43Z,42.805,6.029,13.2958,4.59956,2469.89,2019-10-27T05:00:09Z
2019-10-27T03:02:46Z,42.805,6.029,13.2961,4.59960,2469.876,2019-10-27T05:03:12Z
2019-10-27T03:05:49Z,42.805,6.029,13.2958,4.59957,2469.923,2019-10-27T05:06:15Z
2019-10-27T03:08:52Z,42.805,6.029,13.2961,4.59957,2469.876,2019-10-27T05:09:18Z
2019-10-27T03:11:55Z,42.805,6.029,13.2959,4.59958,2469.9,2019-10-27T05:12:22Z
2019-10-27T03:14:59Z,42.805,6.029,13.2964,4.59956,2469.96,2019-10-27T05:15:25Z
2019-10-27T03:18:02Z,42.805,6.029,13.2961,4.59958,2469.96,2019-10-27T05:18:28Z
2019-10-27T03:21:05Z,42.805,6.029,13.2962,4.59960,2469.9,2019-10-27T05:21:31Z
2019-10-27T03:24:08Z,42.805,6.029,13.2960,4.59960,2469.914,2019-10-27T05:24:34Z
2019-10-27T03:27:11Z,42.805,6.029,13.2961,4.59962,2469.9,2019-10-27T05:27:38Z
2019-10-27T03:30:15Z,42.805,6.029,13.2961,4.59962,2469.937,2019-10-27T05:30:41Z
2019-10-27T03:33:18Z,42.805,6.029,13.2961,4.59961,2469.947,2019-10-27T05:33:44Z
2019-10-27T03:36:21Z,42.805,6.029,13.2967,4.59957,2469.923,2019-10-27T05:36:47Z
2019-10-27T03:39:24Z,42.805,6.029,13.2958,4.59958,2469.923,2019-10-27T05:39:51Z
2019-10-27T03:42:28Z,42.805,6.029,13.2959,4.59961,2469.923,2019-10-27T05:42:54Z
2019-10-27T03:45:31Z,42.805,6.029,13.2961,4.59960,2469.947,2019-10-27T05:45:57Z
2019-10-27T03:48:34Z,42.805,6.029,13.2964,4.59959,2469.937,2019-10-27T05:49:00Z
2019-10-27T03:51:37Z,42.805,6.029,13.2962,4.59959,2469.947,2019-10-27T05:52:03Z
2019-10-27T03:54:40Z,42.805,6.029,13.2960,4.59962,2469.96,2019-10-27T05:55:07Z
2019-10-27T03:57:44Z,42.805,6.029,13.2958,4.59961,2469.984,2019-10-27T05:58:10Z
2019-10-27T04:00:47Z,42.805,6.029,13.2960,4.59960,2469.947,2019-10-27T06:01:13Z
2019-10-27T04:03:50Z,42.805,6.029,13.2961,4.59959,2469.984,2019-10-27T06:04:16Z
2019-10-27T04:06:53Z,42.805,6.029,13.2961,4.59958,2469.984,2019-10-27T06:07:20Z
2019-10-27T04:09:57Z,42.805,6.029,13.2966,4.59958,2469.96,2019-10-27T06:10:23Z
2019-10-27T04:13:00Z,42.805,6.029,13.2959,4.59958,2470.007,2019-10-27T06:13:26Z
2019-10-27T04:16:03Z,42.805,6.029,13.2960,4.59962,2469.97,2019-10-27T06:16:29Z
2019-10-27T04:19:06Z,42.805,6.029,13.2972,4.59958,2469.993,2019-10-27T06:19:32Z
2019-10-27T04:22:10Z,42.805,6.029,13.2961,4.59958,2469.984,2019-10-27T06:22:36Z
2019-10-27T04:25:13Z,42.805,6.029,13.2964,4.59961,2469.993,2019-10-27T06:25:39Z
2019-10-27T04:28:16Z,42.805,6.029,13.2958,4.59958,2469.993,2019-10-27T06:28:43Z
2019-10-27T04:31:19Z,42.805,6.029,13.2966,4.59958,2470.007,2019-10-27T06:31:46Z
2019-10-27T04:34:23Z,42.805,6.029,13.2958,4.59962,2470.03,2019-10-27T06:34:49Z
2019-10-27T04:37:26Z,42.805,6.029,13.2964,4.59961,2470.03,2019-10-27T06:37:52Z
2019-10-27T04:40:29Z,42.805,6.029,13.2960,4.59958,2470.007,2019-10-27T06:40:55Z
2019-10-27T04:43:32Z,42.805,6.029,13.2961,4.59959,2469.993,2019-10-27T06:43:59Z
2019-10-27T04:46:36Z,42.805,6.029,13.2959,4.59960,2470.053,2019-10-27T06:47:02Z
2019-10-27T04:49:39Z,42.805,6.029,13.2961,4.59958,2469.993,2019-10-27T06:50:05Z
2019-10-27T04:52:42Z,42.805,6.029,13.2961,4.59958,2470.04,2019-10-27T06:53:08Z
2019-10-27T04:55:45Z,42.805,6.029,13.2964,4.59960,2470.03,2019-10-27T06:56:12Z
2019-10-27T04:58:48Z,42.805,6.029,13.2961,4.59960,2470.007,2019-10-27T06:59:15Z
2019-10-27T05:01:52Z,42.805,6.029,13.2963,4.59958,2470.03,2019-10-27T07:02:18Z
2019-10-27T05:04:55Z,42.805,6.029,13.2958,4.59958,2470.04,2019-10-27T07:05:21Z
2019-10-27T05:07:58Z,42.805,6.029,13.2962,4.59959,2470.04,2019-10-27T07:08:24Z
2019-10-27T05:11:01Z,42.805,6.029,13.2957,4.59962,2470.04,2019-10-27T07:11:28Z
2019-10-27T05:14:05Z,42.805,6.029,13.2962,4.59960,2470.03,2019-10-27T07:14:31Z
2019-10-27T05:17:08Z,42.805,6.029,13.2961,4.59960,2470.03,2019-10-27T07:17:34Z
2019-10-27T05:20:11Z,42.805,6.029,13.2961,4.59964,2470.077,2019-10-27T07:20:37Z
2019-10-27T05:23:14Z,42.805,6.029,13.2960,4.59961,2470.04,2019-10-27T07:23:41Z
2019-10-27T05:26:17Z,42.805,6.029,13.2961,4.59960,2470.053,2019-10-27T07:26:44Z
2019-10-27T05:29:21Z,42.805,6.029,13.2963,4.59963,2469.993,2019-10-27T07:29:47Z
2019-10-27T05:32:24Z,42.805,6.029,13.2966,4.59961,2470.063,2019-10-27T07:32:50Z
2019-10-27T05:35:27Z,42.805,6.029,13.2959,4.59962,2470.03,2019-10-27T07:35:53Z
2019-10-27T05:38:30Z,42.805,6.029,13.2966,4.59960,2470.053,2019-10-27T07:38:57Z
2019-10-27T05:41:34Z,42.805,6.029,13.2958,4.59959,2470.017,2019-10-27T07:42:00Z
2019-10-27T05:44:37Z,42.805,6.029,13.2961,4.59961,2470.03,2019-10-27T07:45:03Z
2019-10-27T05:47:40Z,42.805,6.029,13.2959,4.59961,2470.053,2019-10-27T07:48:06Z
2019-10-27T05:50:43Z,42.805,6.029,13.2959,4.59961,2470.053,2019-10-27T07:51:09Z
2019-10-27T05:53:46Z,42.805,6.029,13.2963,4.59958,2470.04,2019-10-27T07:54:13Z
2019-10-27T05:56:50Z,42.805,6.029,13.2961,4.59958,2470.03,2019-10-27T07:57:16Z
2019-10-27T05:59:53Z,42.805,6.029,13.2961,4.59958,2470.063,2019-10-27T08:00:19Z
2019-10-27T06:02:56Z,42.805,6.029,13.2958,4.59958,2470.03,2019-10-27T08:03:23Z
2019-10-27T06:06:00Z,42.805,6.029,13.2961,4.59958,2470.04,2019-10-27T08:06:26Z
2019-10-27T06:09:03Z,42.805,6.029,13.2964,4.59963,2470.03,2019-10-27T08:09:29Z
2019-10-27T06:12:06Z,42.805,6.029,13.2963,4.59958,2470.053,2019-10-27T08:12:32Z
2019-10-27T06:15:09Z,42.805,6.029,13.2960,4.59964,2470.017,2019-10-27T08:15:36Z
2019-10-27T06:18:13Z,42.805,6.029,13.2964,4.59961,2470.04,2019-10-27T08:18:39Z
2019-10-27T06:21:16Z,42.805,6.029,13.2960,4.59960,2470.063,2019-10-27T08:21:42Z
2019-10-27T06:24:19Z,42.805,6.029,13.2964,4.59961,2470.03,2019-10-27T08:24:45Z
2019-10-27T06:27:22Z,42.805,6.029,13.2958,4.59959,2470.03,2019-10-27T08:27:48Z
2019-10-27T06:30:25Z,42.805,6.029,13.2960,4.59958,2470.03,2019-10-27T08:30:52Z
2019-10-27T06:33:29Z,42.805,6.029,13.2960,4.59958,2470.063,2019-10-27T08:33:55Z
2019-10-27T06:36:32Z,42.805,6.029,13.2962,4.59962,2470.053,2019-10-27T08:36:58Z
2019-10-27T06:39:35Z,42.805,6.029,13.2964,4.59965,2470.04,2019-10-27T08:40:01Z
2019-10-27T06:42:38Z,42.805,6.029,13.2963,4.59966,2470.063,2019-10-27T08:43:04Z
2019-10-27T06:45:41Z,42.805,6.029,13.2960,4.59960,2470.017,2019-10-27T08:46:08Z
2019-10-27T06:48:45Z,42.805,6.029,13.2963,4.59963,2470.03,2019-10-27T08:49:11Z
2019-10-27T06:51:48Z,42.805,6.029,13.2962,4.59959,2470.053,2019-10-27T08:52:14Z
2019-10-27T06:54:51Z,42.805,6.029,13.2957,4.59959,2470.04,2019-10-27T08:55:17Z
2019-10-27T06:57:54Z,42.805,6.029,13.2964,4.59958,2470.03,2019-10-27T08:58:21Z
2019-10-27T07:00:58Z,42.805,6.029,13.2965,4.59959,2470.053,2019-10-27T09:01:24Z
2019-10-27T07:04:01Z,42.805,6.029,13.2967,4.59960,2469.993,2019-10-27T09:04:27Z
2019-10-27T07:07:04Z,42.805,6.029,13.2961,4.59961,2470.04,2019-10-27T09:07:30Z
2019-10-27T07:10:07Z,42.805,6.029,13.2961,4.59964,2470.053,2019-10-27T09:10:33Z
2019-10-27T07:13:10Z,42.805,6.029,13.2963,4.59968,2470.017,2019-10-27T09:13:37Z
2019-10-27T07:16:14Z,42.805,6.029,13.2963,4.59962,2470.017,2019-10-27T09:16:40Z
2019-10-27T07:19:17Z,42.805,6.029,13.2961,4.59961,2470.03,2019-10-27T09:19:43Z
2019-10-27T07:22:20Z,42.805,6.029,13.2962,4.59962,2470.077,2019-10-27T09:22:46Z
2019-10-27T07:25:23Z,42.805,6.029,13.2961,4.59964,2470.03,2019-10-27T09:25:50Z
2019-10-27T07:28:26Z,42.805,6.029,13.2962,4.59959,2470.017,2019-10-27T09:28:53Z
2019-10-27T07:31:30Z,42.805,6.029,13.2960,4.59961,2470.063,2019-10-27T09:31:56Z
2019-10-27T07:34:33Z,42.805,6.029,13.2959,4.59964,2470.017,2019-10-27T09:34:59Z
2019-10-27T07:37:36Z,42.805,6.029,13.2964,4.59960,2470.007,2019-10-27T09:38:02Z
2019-10-27T07:40:39Z,42.805,6.029,13.2958,4.59961,2470.04,2019-10-27T09:41:05Z
2019-10-27T07:43:42Z,42.805,6.029,13.2960,4.59961,2470.03,2019-10-27T09:44:09Z
2019-10-27T07:46:46Z,42.805,6.029,13.2964,4.59959,2470.044,2019-10-27T09:47:12Z
2019-10-27T07:49:49Z,42.805,6.029,13.2958,4.59960,2470.017,2019-10-27T09:50:15Z
2019-10-27T07:52:52Z,42.805,6.029,13.2961,4.59960,2470.007,2019-10-27T09:53:18Z
2019-10-27T07:55:55Z,42.805,6.029,13.2957,4.59966,2470.03,2019-10-27T09:56:22Z
2019-10-27T07:58:59Z,42.805,6.029,13.2958,4.59964,2470.03,2019-10-27T09:59:25Z
2019-10-27T08:02:02Z,42.805,6.029,13.2961,4.59960,2470.017,2019-10-27T10:02:28Z
2019-10-27T08:05:05Z,42.805,6.029,13.2959,4.59961,2470.03,2019-10-27T10:05:32Z
2019-10-27T08:08:08Z,42.805,6.029,13.2961,4.59961,2469.993,2019-10-27T10:08:35Z
2019-10-27T08:11:12Z,42.805,6.029,13.2961,4.59961,2470.04,2019-10-27T10:11:38Z
2019-10-27T08:14:15Z,42.805,6.029,13.2961,4.59961,2470.007,2019-10-27T10:14:41Z
2019-10-27T08:17:18Z,42.805,6.029,13.2958,4.59961,2470.017,2019-10-27T10:17:45Z
2019-10-27T08:20:21Z,42.805,6.029,13.2961,4.59961,2469.993,2019-10-27T10:20:48Z
2019-10-27T08:23:25Z,42.805,6.029,13.2963,4.59961,2470.017,2019-10-27T10:23:51Z
2019-10-27T08:26:28Z,42.805,6.029,13.2961,4.59960,2469.993,2019-10-27T10:26:54Z
2019-10-27T08:29:31Z,42.805,6.029,13.2961,4.59972,2469.97,2019-10-27T10:29:57Z
2019-10-27T08:32:34Z,42.805,6.029,13.2958,4.59961,2470.017,2019-10-27T10:33:01Z
2019-10-27T08:35:38Z,42.805,6.029,13.2960,4.59960,2470.007,2019-10-27T10:36:04Z
2019-10-27T08:38:41Z,42.805,6.029,13.2960,4.59963,2469.993,2019-10-27T10:39:07Z
2019-10-27T08:41:44Z,42.805,6.029,13.2961,4.59961,2469.984,2019-10-27T10:42:10Z
2019-10-27T08:44:47Z,42.805,6.029,13.2962,4.59962,2470.007,2019-10-27T10:45:13Z
2019-10-27T08:47:50Z,42.805,6.029,13.2962,4.59962,2469.97,2019-10-27T10:48:17Z
2019-10-27T08:50:54Z,42.805,6.029,13.2965,4.59961,2469.947,2019-10-27T10:51:20Z
2019-10-27T08:53:57Z,42.805,6.029,13.2960,4.59961,2470.017,2019-10-27T10:54:23Z
2019-10-27T08:57:00Z,42.805,6.029,13.2960,4.59960,2469.993,2019-10-27T10:57:26Z
2019-10-27T09:00:03Z,42.805,6.029,13.2959,4.59964,2469.97,2019-10-27T11:00:30Z
2019-10-27T09:03:07Z,42.805,6.029,13.2962,4.59961,2469.993,2019-10-27T11:03:33Z
2019-10-27T09:06:10Z,42.805,6.029,13.2963,4.59962,2469.97,2019-10-27T11:06:36Z
2019-10-27T09:09:13Z,42.805,6.029,13.2959,4.59961,2469.984,2019-10-27T11:09:39Z
2019-10-27T09:12:16Z,42.805,6.029,13.2960,4.59966,2469.984,2019-10-27T11:12:43Z
2019-10-27T09:15:19Z,42.805,6.029,13.2962,4.59960,2470.007,2019-10-27T11:15:46Z
2019-10-27T09:18:23Z,42.805,6.029,13.2964,4.59964,2469.984,2019-10-27T11:18:49Z
2019-10-27T09:21:26Z,42.805,6.029,13.2961,4.59962,2469.96,2019-10-27T11:21:52Z
2019-10-27T09:24:29Z,42.805,6.029,13.2965,4.59961,2469.947,2019-10-27T11:24:55Z
2019-10-27T09:27:32Z,42.805,6.029,13.2960,4.59962,2469.947,2019-10-27T11:27:59Z
2019-10-27T09:30:36Z,42.805,6.029,13.2960,4.59960,2469.984,2019-10-27T11:31:02Z
2019-10-27T09:33:39Z,42.805,6.029,13.2961,4.59962,2469.947,2019-10-27T11:34:05Z
2019-10-27T09:36:42Z,42.805,6.029,13.2961,4.59961,2469.96,2019-10-27T11:37:08Z
2019-10-27T09:39:45Z,42.805,6.029,13.2961,4.59961,2469.947,2019-10-27T11:40:12Z
2019-10-27T09:42:48Z,42.805,6.029,13.2960,4.59961,2469.947,2019-10-27T11:43:15Z
2019-10-27T09:45:52Z,42.805,6.029,13.2962,4.59961,2469.97,2019-10-27T11:46:18Z
2019-10-27T09:48:55Z,42.805,6.029,13.2960,4.59960,2469.96,2019-10-27T11:49:21Z
2019-10-27T09:51:58Z,42.805,6.029,13.2960,4.59961,2469.947,2019-10-27T11:52:24Z
2019-10-27T09:55:02Z,42.805,6.029,13.2961,4.59961,2469.937,2019-10-27T11:55:28Z
2019-10-27T09:58:05Z,42.805,6.029,13.2959,4.59960,2469.923,2019-10-27T11:58:31Z
2019-10-27T10:01:08Z,42.805,6.029,13.2960,4.59960,2469.947,2019-10-27T12:01:34Z
2019-10-27T10:04:11Z,42.805,6.029,13.2960,4.59961,2469.923,2019-10-27T12:04:38Z
2019-10-27T10:07:14Z,42.805,6.029,13.2963,4.59962,2469.937,2019-10-27T12:07:41Z
2019-10-27T10:10:18Z,42.805,6.029,13.2963,4.59961,2469.937,2019-10-27T12:10:44Z
2019-10-27T10:13:21Z,42.805,6.029,13.2960,4.59962,2469.923,2019-10-27T12:13:47Z
2019-10-27T10:16:24Z,42.805,6.029,13.2961,4.59959,2469.947,2019-10-27T12:16:50Z
2019-10-27T10:19:27Z,42.805,6.029,13.2960,4.59963,2469.97,2019-10-27T12:19:54Z
2019-10-27T10:22:31Z,42.805,6.029,13.2963,4.59961,2469.96,2019-10-27T12:22:57Z
2019-10-27T10:25:34Z,42.805,6.029,13.2958,4.59962,2469.923,2019-10-27T12:26:00Z
2019-10-27T10:28:37Z,42.805,6.029,13.2959,4.59962,2469.9,2019-10-27T12:29:03Z
2019-10-27T10:31:40Z,42.805,6.029,13.2961,4.59960,2469.9,2019-10-27T12:32:07Z
2019-10-27T10:34:43Z,42.805,6.029,13.2961,4.59961,2469.923,2019-10-27T12:35:10Z
2019-10-27T10:37:47Z,42.805,6.029,13.2962,4.59961,2469.923,2019-10-27T12:38:13Z
2019-10-27T10:40:50Z,42.805,6.029,13.2964,4.59965,2469.876,2019-10-27T12:41:16Z
2019-10-27T10:43:53Z,42.805,6.029,13.2958,4.59961,2469.914,2019-10-27T12:44:19Z
2019-10-27T10:46:56Z,42.805,6.029,13.2957,4.59961,2469.914,2019-10-27T12:47:23Z
2019-10-27T10:50:00Z,42.805,6.029,13.2958,4.59961,2469.914,2019-10-27T12:50:26Z
2019-10-27T10:53:03Z,42.805,6.029,13.2961,4.59966,2469.914,2019-10-27T12:53:29Z
2019-10-27T10:56:06Z,42.805,6.029,13.2960,4.59964,2469.876,2019-10-27T12:56:32Z
2019-10-27T10:59:09Z,42.805,6.029,13.2963,4.59964,2469.89,2019-10-27T12:59:36Z
2019-10-27T11:02:13Z,42.805,6.029,13.2961,4.59958,2469.89,2019-10-27T13:02:39Z
2019-10-27T11:05:16Z,42.805,6.029,13.2958,4.59958,2469.853,2019-10-27T13:05:42Z
2019-10-27T11:08:19Z,42.805,6.029,13.2960,4.59962,2469.9,2019-10-27T13:08:45Z
2019-10-27T11:11:22Z,42.805,6.029,13.2961,4.59961,2469.876,2019-10-27T13:11:49Z
2019-10-27T11:14:25Z,42.805,6.029,13.2962,4.59961,2469.876,2019-10-27T13:14:52Z
2019-10-27T11:17:29Z,42.805,6.029,13.2959,4.59961,2469.867,2019-10-27T13:17:55Z
2019-10-27T11:20:32Z,42.805,6.029,13.2963,4.59965,2469.867,2019-10-27T13:20:58Z
2019-10-27T11:23:35Z,42.805,6.029,13.2961,4.59958,2469.876,2019-10-27T13:24:01Z
2019-10-27T11:26:38Z,42.805,6.029,13.2963,4.59966,2469.876,2019-10-27T13:27:05Z
2019-10-27T11:29:42Z,42.805,6.029,13.2958,4.59961,2469.876,2019-10-27T13:30:08Z
2019-10-27T11:32:45Z,42.805,6.029,13.2961,4.59961,2469.914,2019-10-27T13:33:11Z
2019-10-27T11:35:48Z,42.805,6.029,13.2961,4.59962,2469.876,2019-10-27T13:36:14Z
2019-10-27T11:38:51Z,42.805,6.029,13.2964,4.59960,2469.867,2019-10-27T13:39:17Z
2019-10-27T11:41:54Z,42.805,6.029,13.2960,4.59959,2469.89,2019-10-27T13:42:21Z
2019-10-27T11:44:58Z,42.805,6.029,13.2960,4.59961,2469.867,2019-10-27T13:45:24Z
2019-10-27T11:48:01Z,42.805,6.029,13.2957,4.59959,2469.89,2019-10-27T13:48:27Z
2019-10-27T11:51:04Z,42.805,6.029,13.2958,4.59963,2469.9,2019-10-27T13:51:30Z
2019-10-27T11:54:07Z,42.805,6.029,13.2963,4.59962,2469.853,2019-10-27T13:54:34Z
2019-10-27T11:57:11Z,42.805,6.029,13.2964,4.59961,2469.806,2019-10-27T13:57:37Z
2019-10-27T12:00:14Z,42.805,6.029,13.2960,4.59961,2469.876,2019-10-27T14:00:40Z
2019-10-27T12:03:17Z,42.805,6.029,13.2961,4.59961,2469.867,2019-10-27T14:03:43Z
2019-10-27T12:06:20Z,42.805,6.029,13.2961,4.59960,2469.914,2019-10-27T14:06:47Z
2019-10-27T12:09:24Z,42.805,6.029,13.2960,4.59964,2469.853,2019-10-27T14:09:50Z
2019-10-27T12:12:27Z,42.805,6.029,13.2961,4.59961,2469.83,2019-10-27T14:12:53Z
2019-10-27T12:15:30Z,42.805,6.029,13.2960,4.59962,2469.844,2019-10-27T14:15:56Z
2019-10-27T12:18:33Z,42.805,6.029,13.2959,4.59963,2469.844,2019-10-27T14:19:00Z
2019-10-27T12:21:37Z,42.805,6.029,13.2962,4.59964,2469.867,2019-10-27T14:22:03Z
2019-10-27T12:24:40Z,42.805,6.029,13.2961,4.59967,2469.83,2019-10-27T14:25:06Z
2019-10-27T12:27:43Z,42.805,6.029,13.2958,4.59966,2469.844,2019-10-27T14:28:09Z
2019-10-27T12:30:46Z,42.805,6.029,13.2957,4.59964,2469.867,2019-10-27T14:31:12Z
2019-10-27T12:33:49Z,42.805,6.029,13.2961,4.59968,2469.83,2019-10-27T14:34:16Z
2019-10-27T12:36:53Z,42.805,6.029,13.2958,4.59966,2469.844,2019-10-27T14:37:19Z
2019-10-27T12:39:56Z,42.805,6.029,13.2962,4.59964,2469.83,2019-10-27T14:40:22Z
2019-10-27T12:42:59Z,42.805,6.029,13.2961,4.59966,2469.844,2019-10-27T14:43:25Z
2019-10-27T12:46:02Z,42.805,6.029,13.2962,4.59966,2469.858,2019-10-27T14:46:29Z
2019-10-27T12:49:05Z,42.805,6.029,13.2963,4.59960,2469.821,2019-10-27T14:49:32Z
2019-10-27T12:52:09Z,42.805,6.029,13.2958,4.59962,2469.867,2019-10-27T14:52:35Z
2019-10-27T12:55:12Z,42.805,6.029,13.2954,4.59963,2469.853,2019-10-27T14:55:38Z
2019-10-27T12:58:15Z,42.805,6.029,13.2964,4.59961,2469.844,2019-10-27T14:58:41Z
2019-10-27T13:01:18Z,42.805,6.029,13.2961,4.59962,2469.853,2019-10-27T15:01:45Z
2019-10-27T13:04:22Z,42.805,6.029,13.2963,4.59964,2469.83,2019-10-27T15:04:48Z
2019-10-27T13:07:25Z,42.805,6.029,13.2962,4.59961,2469.806,2019-10-27T15:07:51Z
2019-10-27T13:10:28Z,42.805,6.029,13.2961,4.59964,2469.83,2019-10-27T15:10:54Z
2019-10-27T13:13:31Z,42.805,6.029,13.2958,4.59961,2469.821,2019-10-27T15:13:58Z
2019-10-27T13:16:35Z,42.805,6.029,13.2963,4.59964,2469.853,2019-10-27T15:17:01Z
2019-10-27T13:19:38Z,42.805,6.029,13.2961,4.59964,2469.806,2019-10-27T15:20:04Z
2019-10-27T13:22:41Z,42.805,6.029,13.2961,4.59966,2469.83,2019-10-27T15:23:07Z
2019-10-27T13:25:45Z,42.805,6.029,13.2961,4.59963,2469.867,2019-10-27T15:26:11Z
2019-10-27T13:28:48Z,42.805,6.029,13.2957,4.59963,2469.821,2019-10-27T15:29:14Z
2019-10-27T13:31:51Z,42.805,6.029,13.2961,4.59964,2469.83,2019-10-27T15:32:17Z
2019-10-27T13:34:54Z,42.805,6.029,13.2961,4.59961,2469.806,2019-10-27T15:35:21Z
2019-10-27T13:37:58Z,42.805,6.029,13.2960,4.59961,2469.821,2019-10-27T15:38:24Z
2019-10-27T13:41:01Z,42.805,6.029,13.2961,4.59966,2469.844,2019-10-27T15:41:27Z
2019-10-27T13:44:04Z,42.805,6.029,13.2961,4.59964,2469.83,2019-10-27T15:44:30Z
2019-10-27T13:47:07Z,42.805,6.029,13.2960,4.59964,2469.821,2019-10-27T15:47:33Z
2019-10-27T13:50:10Z,42.805,6.029,13.2960,4.59966,2469.844,2019-10-27T15:50:37Z
2019-10-27T13:53:14Z,42.805,6.029,13.2959,4.59964,2469.83,2019-10-27T15:53:40Z
2019-10-27T13:56:17Z,42.805,6.029,13.2961,4.59963,2469.844,2019-10-27T15:56:43Z
2019-10-27T13:59:20Z,42.805,6.029,13.2960,4.59966,2469.914,2019-10-27T15:59:47Z
2019-10-27T14:02:23Z,42.805,6.029,13.2961,4.59964,2469.844,2019-10-27T16:02:50Z
2019-10-27T14:05:27Z,42.805,6.029,13.2958,4.59962,2469.89,2019-10-27T16:05:53Z
2019-10-27T14:08:30Z,42.805,6.029,13.2964,4.59963,2469.844,2019-10-27T16:08:56Z
2019-10-27T14:11:33Z,42.805,6.029,13.2961,4.59963,2469.844,2019-10-27T16:11:59Z
2019-10-27T14:14:36Z,42.805,6.029,13.2964,4.59966,2469.89,2019-10-27T16:15:03Z
2019-10-27T14:17:40Z,42.805,6.029,13.2959,4.59961,2469.844,2019-10-27T16:18:06Z
2019-10-27T14:20:43Z,42.805,6.029,13.2960,4.59964,2469.853,2019-10-27T16:21:09Z
2019-10-27T14:23:46Z,42.805,6.029,13.2962,4.59967,2469.876,2019-10-27T16:24:12Z
2019-10-27T14:26:49Z,42.805,6.029,13.2962,4.59961,2469.867,2019-10-27T16:27:16Z
2019-10-27T14:29:53Z,42.805,6.029,13.2963,4.59963,2469.844,2019-10-27T16:30:19Z
2019-10-27T14:32:56Z,42.805,6.029,13.2964,4.59963,2469.853,2019-10-27T16:33:22Z
2019-10-27T14:35:59Z,42.805,6.029,13.2961,4.59964,2469.853,2019-10-27T16:36:25Z
2019-10-27T14:39:02Z,42.805,6.029,13.2963,4.59964,2469.89,2019-10-27T16:39:28Z
2019-10-27T14:42:05Z,42.805,6.029,13.2964,4.59964,2469.876,2019-10-27T16:42:32Z
2019-10-27T14:45:09Z,42.805,6.029,13.2959,4.59966,2469.876,2019-10-27T16:45:35Z
2019-10-27T14:48:12Z,42.805,6.029,13.2963,4.59964,2469.876,2019-10-27T16:48:38Z
2019-10-27T14:51:15Z,42.805,6.029,13.2961,4.59964,2469.863,2019-10-27T16:51:42Z
2019-10-27T14:54:18Z,42.805,6.029,13.2958,4.59964,2469.914,2019-10-27T16:54:45Z
2019-10-27T14:57:22Z,42.805,6.029,13.2963,4.59961,2469.89,2019-10-27T16:57:48Z
2019-10-27T15:00:25Z,42.805,6.029,13.2961,4.59966,2469.914,2019-10-27T17:00:51Z
2019-10-27T15:03:28Z,42.805,6.029,13.2958,4.59963,2469.9,2019-10-27T17:03:54Z